Fort Lauderdale, FL

12:54 PM EDT on March 27, 2017 (GMT -0400)
Fort Lauderdale Executive

Weather History for KFXE - August, 2013

Change the Weather History Date:

Sunday, August 4, 2013

  Actual Average Record
Temperature  
Mean Temperature 85 °F -  
Max Temperature 93 °F 92 °F 96 °F (1987)
Min Temperature 77 °F 74 °F 66 °F (1950)
Cooling Degree Days 20    
Growing Degree Days 35 (Base 50)    
Moisture  
Dew Point 74 °F    
Average Humidity 75    
Maximum Humidity 94    
Minimum Humidity 47    
Precipitation  
Precipitation 0.41 in - - ()
Sea Level Pressure  
Sea Level Pressure 30.07 in    
Wind  
Wind Speed 2 mph (SSW)    
Max Wind Speed 12 mph    
Max Gust Speed -    
Visibility 10 miles    
Events      
Averages and records for this station are not official NWS values.
T = Trace of Precipitation, MM = Missing Value Source: NWS Daily Summary

Daily Weather History Graph

Daily Weather History Graph

Search for Another Location

Airport or City:

Trip Planner

Search our weather history database for the weather conditions in past years. The results will help you decide how hot, cold, wet, or windy it might be!

Date:

Astronomy

Aug. 04, 2013 Rise Set
Actual Time 6:47 AM EDT 8:05 PM EDT
Civil Twilight 6:23 AM EDT 8:29 PM EDT
Nautical Twilight 5:53 AM EDT 8:59 PM EDT
Astronomical Twilight 5:23 AM EDT 9:29 PM EDT
Moon 4:49 AM EDT (8/4) 6:27 PM EDT (8/4)
Length of Visible Light 14h 06m
Length of Day
13h 17m
Waning Crescent, 5% of the Moon is Illuminated
Aug 4
Waning Crescent
Aug 6
New
Aug 14
First Quarter
Aug 20
Full
Aug 28
Last Quarter

Hourly Weather History & Observations

Time (EDT) Temp. Heat Index Dew Point Humidity Pressure Visibility Wind Dir Wind Speed Gust Speed Precip Events Conditions
12:53 AM 77.0 °F - 75.0 °F 94% 30.12 in 10.0 mi Calm Calm - N/A   Clear
1:53 AM 78.1 °F - 73.9 °F 87% 30.10 in 10.0 mi Calm Calm - N/A   Partly Cloudy
2:53 AM 78.1 °F - 73.9 °F 87% 30.09 in 10.0 mi Calm Calm - N/A   Clear
3:53 AM 77.0 °F - 73.9 °F 90% 30.09 in 10.0 mi Calm Calm - N/A   Clear
4:53 AM 77.0 °F - 73.9 °F 90% 30.08 in 10.0 mi Calm Calm - N/A   Clear
5:53 AM 78.1 °F - 75.0 °F 90% 30.08 in 10.0 mi Calm Calm - N/A   Clear
6:53 AM 78.1 °F - 73.0 °F 84% 30.09 in 10.0 mi Calm Calm - N/A   Clear
7:53 AM 79.0 °F - 75.0 °F 88% 30.10 in 10.0 mi Calm Calm - N/A   Scattered Clouds
8:53 AM 84.0 °F 91.2 °F 73.9 °F 72% 30.11 in 10.0 mi Calm Calm - N/A   Scattered Clouds
9:53 AM 86.0 °F 95.1 °F 75.0 °F 70% 30.12 in 10.0 mi Calm Calm - N/A   Scattered Clouds
10:46 AM 87.8 °F 95.6 °F 73.4 °F 62% 30.10 in 10.0 mi WSW 4.6 mph - 0.01 in   Scattered Clouds
10:53 AM 88.0 °F 93.8 °F 71.1 °F 57% 30.11 in 10.0 mi WSW 4.6 mph - 0.01 in   Scattered Clouds
11:53 AM 90.0 °F 97.9 °F 73.0 °F 57% 30.10 in 10.0 mi WSW 5.8 mph - N/A   Scattered Clouds
12:53 PM 90.0 °F 97.9 °F 73.0 °F 57% 30.08 in 10.0 mi WSW 6.9 mph - N/A   Scattered Clouds
1:53 PM 91.9 °F 98.4 °F 71.1 °F 50% 30.06 in 10.0 mi WSW 6.9 mph - N/A   Scattered Clouds
2:53 PM 93.0 °F 99.0 °F 70.0 °F 47% 30.04 in 10.0 mi West 5.8 mph - N/A   Scattered Clouds
3:53 PM 91.0 °F 100.4 °F 73.9 °F 57% 30.01 in 10.0 mi SE 11.5 mph - N/A   Scattered Clouds
4:53 PM 91.9 °F 103.9 °F 75.9 °F 59% 30.01 in 10.0 mi SSE 10.4 mph - N/A   Partly Cloudy
5:53 PM 88.0 °F 96.5 °F 73.9 °F 63% 30.01 in 10.0 mi SE 9.2 mph - N/A   Scattered Clouds
6:53 PM 79.0 °F - 75.0 °F 88% 30.05 in 10.0 mi North 5.8 mph - 0.40 in   Scattered Clouds
7:53 PM 80.1 °F 84.5 °F 73.9 °F 81% 30.05 in 10.0 mi ENE 3.5 mph - N/A   Scattered Clouds
8:53 PM 79.0 °F - 75.0 °F 88% 30.05 in 10.0 mi ESE 3.5 mph - N/A   Clear
9:53 PM 80.1 °F 85.4 °F 75.9 °F 87% 30.06 in 10.0 mi Calm Calm - N/A   Scattered Clouds
10:53 PM 80.1 °F 85.1 °F 75.0 °F 85% 30.06 in 10.0 mi Calm Calm - N/A   Clear
11:53 PM 80.1 °F 85.1 °F 75.0 °F 85% 30.06 in 10.0 mi Calm Calm - N/A   Clear